Simultaneous Nadir Overpasses (SNOs) Predictions

Prediction of SNOs between GOES-15 and METOP-C Satellite Orbit:

Table of predicted SNOs for the next 14.0 days since TLE Epoch: 5/21/2023
Index Date Time (GOES-15) GOES-15 Lat,Lon METOP-C Lat,Lon Distance(km) Time Diff (sec)
1 05/21/2023 07:17:01 0.27,-150.62 1.02,-147.18 391.82 80
2 05/22/2023 19:38:33 -0.26,-151.29 -0.16,-151.77 54.36 80
3 05/25/2023 07:34:17 0.27,-152.39 0.50,-151.42 110.36 80
4 05/26/2023 19:55:48 -0.26,-153.05 0.41,-156.00 336.57 80
5 05/27/2023 19:32:30 -0.28,-153.48 -0.82,-151.03 279.28 80
6 05/29/2023 07:54:12 0.27,-154.14 -0.06,-155.66 172.46 80
7 05/30/2023 07:30:53 0.28,-154.57 1.16,-150.69 442.85 80
8 05/31/2023 19:52:25 -0.27,-155.22 -0.28,-155.27 5.53 80
9 06/02/2023 08:11:26 0.25,-155.87 -0.66,-159.88 457.84 80
10 06/03/2023 07:48:08 0.27,-156.29 0.57,-154.91 156.39 80
